TimeMST,TemperatureF,Dew PointF,Humidity,Sea Level PressureIn,VisibilityMPH,Wind Direction,Wind SpeedMPH,Gust SpeedMPH,PrecipitationIn,Events,Conditions,WindDirDegrees,DateUTC
12:15 AM,50.0,26.6,40,29.82,10.0,SSW,15.0,23.0,N/A,,Clear,210,2013-11-19 07:15:00
12:35 AM,50.0,26.6,40,29.81,10.0,SW,8.1,20.7,N/A,,Clear,230,2013-11-19 07:35:00
12:55 AM,50.0,26.6,40,29.79,10.0,SSW,13.8,19.6,N/A,,Clear,210,2013-11-19 07:55:00
1:15 AM,50.0,26.6,40,29.79,10.0,SSW,10.4,19.6,N/A,,Scattered Clouds,210,2013-11-19 08:15:00
1:35 AM,50.0,26.6,40,29.78,10.0,SSW,11.5,19.6,N/A,,Mostly Cloudy,210,2013-11-19 08:35:00
1:55 AM,50.0,26.6,40,29.78,10.0,North,-9999.0,-,N/A,,Scattered Clouds,0,2013-11-19 08:55:00
2:15 AM,48.2,26.6,43,29.75,10.0,North,-9999.0,-,N/A,,Clear,0,2013-11-19 09:15:00
2:35 AM,48.2,24.8,40,29.75,10.0,SSW,19.6,24.2,N/A,,Clear,210,2013-11-19 09:35:00
2:55 AM,48.2,24.8,40,29.74,10.0,SSW,15.0,24.2,N/A,,Clear,200,2013-11-19 09:55:00
3:15 AM,50.0,24.8,37,29.73,10.0,SSW,16.1,21.9,N/A,,Clear,200,2013-11-19 10:15:00
3:35 AM,50.0,23.0,35,29.73,10.0,SSW,15.0,21.9,N/A,,Clear,210,2013-11-19 10:35:00
3:55 AM,50.0,24.8,37,29.71,10.0,SSW,15.0,20.7,N/A,,Clear,210,2013-11-19 10:55:00
4:15 AM,50.0,24.8,37,29.71,10.0,SSW,17.3,24.2,N/A,,Clear,210,2013-11-19 11:15:00
4:35 AM,50.0,23.0,35,29.70,10.0,SSW,16.1,21.9,N/A,,Clear,200,2013-11-19 11:35:00
4:55 AM,50.0,23.0,35,29.70,10.0,SW,12.7,16.1,N/A,,Clear,230,2013-11-19 11:55:00
5:15 AM,48.2,24.8,40,29.69,10.0,SW,13.8,21.9,N/A,,Clear,220,2013-11-19 12:15:00
5:35 AM,48.2,24.8,40,29.68,10.0,SSW,17.3,21.9,N/A,,Clear,200,2013-11-19 12:35:00
5:55 AM,48.2,26.6,43,29.68,10.0,South,21.9,26.5,N/A,,Clear,190,2013-11-19 12:55:00
6:15 AM,48.2,26.6,43,29.67,10.0,SSW,17.3,23.0,N/A,,Clear,200,2013-11-19 13:15:00
6:35 AM,48.2,26.6,43,29.67,10.0,SSW,16.1,23.0,N/A,,Clear,200,2013-11-19 13:35:00
6:55 AM,48.2,26.6,43,29.66,10.0,SSW,19.6,26.5,N/A,,Clear,210,2013-11-19 13:55:00
7:15 AM,48.2,26.6,43,29.66,10.0,SSW,18.4,27.6,N/A,,Clear,210,2013-11-19 14:15:00
7:35 AM,48.2,26.6,43,29.66,10.0,SSW,19.6,24.2,N/A,,Clear,200,2013-11-19 14:35:00
7:55 AM,48.2,26.6,43,29.64,10.0,SSW,19.6,24.2,N/A,,Clear,200,2013-11-19 14:55:00
8:15 AM,48.2,26.6,43,29.64,10.0,SSW,19.6,24.2,N/A,,Clear,200,2013-11-19 15:15:00
8:35 AM,50.0,26.6,40,29.64,10.0,SSW,17.3,23.0,N/A,,Clear,200,2013-11-19 15:35:00
8:55 AM,50.0,26.6,40,29.64,10.0,SSW,17.3,23.0,N/A,,Clear,200,2013-11-19 15:55:00
9:15 AM,50.0,26.6,40,29.64,10.0,SSW,18.4,23.0,N/A,,Clear,200,2013-11-19 16:15:00
9:35 AM,50.0,28.4,43,29.64,10.0,SSW,16.1,20.7,N/A,,Clear,200,2013-11-19 16:35:00
9:55 AM,51.8,26.6,38,29.64,10.0,SSW,16.1,21.9,N/A,,Clear,210,2013-11-19 16:55:00
10:15 AM,50.0,26.6,40,29.64,10.0,SSW,12.7,20.7,N/A,,Clear,210,2013-11-19 17:15:00
10:35 AM,51.8,28.4,41,29.64,10.0,SSW,15.0,19.6,N/A,,Clear,210,2013-11-19 17:35:00
10:55 AM,51.8,26.6,38,29.64,10.0,SW,8.1,19.6,N/A,,Scattered Clouds,220,2013-11-19 17:55:00
11:15 AM,51.8,28.4,41,29.63,10.0,SSW,12.7,-,N/A,,Scattered Clouds,210,2013-11-19 18:15:00
11:35 AM,51.8,28.4,41,29.62,10.0,SSW,13.8,-,N/A,,Clear,210,2013-11-19 18:35:00
11:55 AM,51.8,28.4,41,29.62,10.0,SSW,11.5,17.3,N/A,,Clear,210,2013-11-19 18:55:00
12:15 PM,51.8,28.4,41,29.61,10.0,SSW,12.7,18.4,N/A,,Clear,210,2013-11-19 19:15:00
12:35 PM,53.6,28.4,38,29.61,10.0,SW,13.8,20.7,N/A,,Clear,230,2013-11-19 19:35:00
12:55 PM,53.6,28.4,38,29.61,10.0,SW,10.4,19.6,N/A,,Clear,230,2013-11-19 19:55:00
1:15 PM,53.6,28.4,38,29.61,10.0,SW,8.1,-,N/A,,Clear,230,2013-11-19 20:15:00
1:35 PM,53.6,28.4,38,29.61,10.0,SW,6.9,-,N/A,,Clear,230,2013-11-19 20:35:00
1:55 PM,53.6,28.4,38,29.61,10.0,SW,5.8,-,N/A,,Clear,230,2013-11-19 20:55:00
2:15 PM,53.6,28.4,38,29.61,10.0,WSW,3.5,-,N/A,,Clear,240,2013-11-19 21:15:00
2:35 PM,53.6,28.4,38,29.61,10.0,SW,4.6,-,N/A,,Clear,230,2013-11-19 21:35:00
2:55 PM,53.6,30.2,41,29.62,10.0,SSW,3.5,-,N/A,,Clear,200,2013-11-19 21:55:00
3:15 PM,51.8,30.2,44,29.62,10.0,SSW,4.6,-,N/A,,Clear,210,2013-11-19 22:15:00
3:35 PM,50.0,30.2,47,29.62,10.0,SW,4.6,-,N/A,,Clear,220,2013-11-19 22:35:00
3:55 PM,50.0,28.4,43,29.64,10.0,SSW,3.5,-,N/A,,Clear,210,2013-11-19 22:55:00
4:15 PM,51.8,28.4,41,29.64,10.0,South,3.5,-,N/A,,Clear,190,2013-11-19 23:15:00
4:35 PM,51.8,26.6,38,29.64,10.0,Calm,Calm,-,N/A,,Clear,0,2013-11-19 23:35:00
4:55 PM,48.2,28.4,46,29.64,10.0,South,4.6,-,N/A,,Clear,180,2013-11-19 23:55:00
5:15 PM,44.6,30.2,57,29.64,10.0,SSE,5.8,-,N/A,,Clear,160,2013-11-20 00:15:00
5:35 PM,44.6,28.4,53,29.64,10.0,SSE,8.1,-,N/A,,Clear,160,2013-11-20 00:35:00
5:55 PM,42.8,28.4,57,29.65,10.0,South,6.9,-,N/A,,Clear,170,2013-11-20 00:55:00
6:15 PM,44.6,28.4,53,29.65,10.0,South,5.8,-,N/A,,Clear,190,2013-11-20 01:15:00
6:35 PM,42.8,28.4,57,29.65,10.0,South,8.1,-,N/A,,Clear,190,2013-11-20 01:35:00
6:55 PM,37.4,28.4,70,29.66,10.0,South,8.1,-,N/A,,Clear,180,2013-11-20 01:55:00
7:15 PM,39.2,28.4,65,29.66,10.0,South,6.9,-,N/A,,Clear,180,2013-11-20 02:15:00
7:35 PM,37.4,28.4,70,29.65,10.0,South,8.1,-,N/A,,Clear,180,2013-11-20 02:35:00
7:55 PM,41.0,28.4,61,29.66,10.0,South,9.2,-,N/A,,Clear,170,2013-11-20 02:55:00
8:15 PM,41.0,28.4,61,29.66,10.0,South,9.2,-,N/A,,Clear,170,2013-11-20 03:15:00
8:35 PM,39.2,28.4,65,29.66,10.0,South,8.1,-,N/A,,Clear,170,2013-11-20 03:35:00
8:55 PM,35.6,28.4,75,29.66,10.0,South,5.8,-,N/A,,Clear,180,2013-11-20 03:55:00
9:15 PM,35.6,28.4,75,29.66,10.0,South,6.9,-,N/A,,Clear,180,2013-11-20 04:15:00
9:35 PM,35.6,28.4,75,29.67,10.0,SW,9.2,-,N/A,,Clear,220,2013-11-20 04:35:00
9:55 PM,37.4,26.6,65,29.67,10.0,South,8.1,-,N/A,,Clear,190,2013-11-20 04:55:00
10:15 PM,33.8,28.4,81,29.67,10.0,SSW,8.1,-,N/A,,Clear,210,2013-11-20 05:15:00
10:35 PM,37.4,26.6,65,29.68,10.0,Calm,Calm,-,N/A,,Clear,0,2013-11-20 05:35:00
10:55 PM,37.4,26.6,65,29.68,10.0,SSW,5.8,-,N/A,,Clear,200,2013-11-20 05:55:00
11:15 PM,35.6,26.6,70,29.68,10.0,South,8.1,-,N/A,,Clear,190,2013-11-20 06:15:00
11:35 PM,33.8,26.6,75,29.69,10.0,SSW,4.6,-,N/A,,Clear,210,2013-11-20 06:35:00
11:55 PM,35.6,26.6,70,29.69,10.0,SSW,9.2,-,N/A,,Clear,200,2013-11-20 06:55:00